Year,Month,Day,Hour,Minute,Value (Times are PST for temperature in C)
2011,06,26,00,00,10.20
2011,06,26,00,01,10.20
2011,06,26,00,02,10.20
2011,06,26,00,03,10.20
2011,06,26,00,04,10.20
2011,06,26,00,05,10.20
2011,06,26,00,06,10.10
2011,06,26,00,07,10.10
2011,06,26,00,08,10.10
2011,06,26,00,09,10.10
2011,06,26,00,10,10.10
2011,06,26,00,11,10.10
2011,06,26,00,12,10.10
2011,06,26,00,13,10.00
2011,06,26,00,14,10.00
2011,06,26,00,15,10.00
2011,06,26,00,16,10.00
2011,06,26,00,17,9.90
2011,06,26,00,18,9.90
2011,06,26,00,19,9.90
2011,06,26,00,20,9.90
2011,06,26,00,21,9.90
2011,06,26,00,22,9.90
2011,06,26,00,23,9.80
2011,06,26,00,24,9.80
2011,06,26,00,25,9.80
2011,06,26,00,26,9.80
2011,06,26,00,27,9.80
2011,06,26,00,28,9.80
2011,06,26,00,29,9.80
2011,06,26,00,30,9.80
2011,06,26,00,31,9.80
2011,06,26,00,32,9.70
2011,06,26,00,33,9.70
2011,06,26,00,34,9.70
2011,06,26,00,35,9.70
2011,06,26,00,36,9.70
2011,06,26,00,37,9.70
2011,06,26,00,38,9.70
2011,06,26,00,39,9.70
2011,06,26,00,40,9.70
2011,06,26,00,41,9.70
2011,06,26,00,42,9.70
2011,06,26,00,43,9.70
2011,06,26,00,44,9.70
2011,06,26,00,45,9.70
2011,06,26,00,46,9.70
2011,06,26,00,47,9.60
2011,06,26,00,48,9.60
2011,06,26,00,49,9.60
2011,06,26,00,50,9.60
2011,06,26,00,51,9.60
2011,06,26,00,52,9.60
2011,06,26,00,53,9.60
2011,06,26,00,54,9.50
2011,06,26,00,55,9.50
2011,06,26,00,56,9.50
2011,06,26,00,57,9.50
2011,06,26,00,58,9.40
2011,06,26,00,59,9.40
2011,06,26,01,00,9.40
2011,06,26,01,01,9.40
2011,06,26,01,02,9.40
2011,06,26,01,03,9.40
2011,06,26,01,04,9.40
2011,06,26,01,05,9.30
2011,06,26,01,06,9.30
2011,06,26,01,07,9.30
2011,06,26,01,08,9.30
2011,06,26,01,09,9.30
2011,06,26,01,10,9.30
2011,06,26,01,11,9.30
2011,06,26,01,12,9.30
2011,06,26,01,13,9.30
2011,06,26,01,14,9.30
2011,06,26,01,15,9.30
2011,06,26,01,16,9.30
2011,06,26,01,17,9.20
2011,06,26,01,18,9.20
2011,06,26,01,19,9.20
2011,06,26,01,20,9.20
2011,06,26,01,21,9.20
2011,06,26,01,22,9.10
2011,06,26,01,23,9.10
2011,06,26,01,24,9.10
2011,06,26,01,25,9.10
2011,06,26,01,26,9.10
2011,06,26,01,27,9.10
2011,06,26,01,28,9.10
2011,06,26,01,29,9.10
2011,06,26,01,30,9.10
2011,06,26,01,31,9.10
2011,06,26,01,32,9.00
2011,06,26,01,33,9.00
2011,06,26,01,34,9.00
2011,06,26,01,35,9.00
2011,06,26,01,36,9.00
2011,06,26,01,37,9.00
2011,06,26,01,38,9.00
2011,06,26,01,39,9.00
2011,06,26,01,40,9.00
2011,06,26,01,41,9.00
2011,06,26,01,42,9.00
2011,06,26,01,43,9.00
2011,06,26,01,44,9.00
2011,06,26,01,45,9.00
2011,06,26,01,46,9.00
2011,06,26,01,47,9.00
2011,06,26,01,48,9.00
2011,06,26,01,49,9.00
2011,06,26,01,50,9.00
2011,06,26,01,51,9.00
2011,06,26,01,52,9.00
2011,06,26,01,53,9.00
2011,06,26,01,54,9.00
2011,06,26,01,55,9.00
2011,06,26,01,56,8.90
2011,06,26,01,57,8.90
2011,06,26,01,58,8.90
2011,06,26,01,59,8.90
2011,06,26,02,00,8.80
2011,06,26,02,01,8.80
2011,06,26,02,02,8.80
2011,06,26,02,03,8.80
2011,06,26,02,04,8.80
2011,06,26,02,05,8.80
2011,06,26,02,06,8.70
2011,06,26,02,07,8.70
2011,06,26,02,08,8.70
2011,06,26,02,09,8.70
2011,06,26,02,10,8.70
2011,06,26,02,11,8.60
2011,06,26,02,12,8.60
2011,06,26,02,13,8.60
2011,06,26,02,14,8.60
2011,06,26,02,15,8.60
2011,06,26,02,16,8.60
2011,06,26,02,17,8.60
2011,06,26,02,18,8.60
2011,06,26,02,19,8.60
2011,06,26,02,20,8.60
2011,06,26,02,21,8.60
2011,06,26,02,22,8.60
2011,06,26,02,23,8.60
2011,06,26,02,24,8.60
2011,06,26,02,25,8.50
2011,06,26,02,26,8.50
2011,06,26,02,27,8.50
2011,06,26,02,28,8.40
2011,06,26,02,29,8.40
2011,06,26,02,30,8.40
2011,06,26,02,31,8.40
2011,06,26,02,32,8.40
2011,06,26,02,33,8.40
2011,06,26,02,34,8.40
2011,06,26,02,35,8.40
2011,06,26,02,36,8.40
2011,06,26,02,37,8.30
2011,06,26,02,38,8.30
2011,06,26,02,39,8.30
2011,06,26,02,40,8.30
2011,06,26,02,41,8.30
2011,06,26,02,42,8.30
2011,06,26,02,43,8.30
2011,06,26,02,44,8.30
2011,06,26,02,45,8.30
2011,06,26,02,46,8.30
2011,06,26,02,47,8.30
2011,06,26,02,48,8.20
2011,06,26,02,49,8.20
2011,06,26,02,50,8.20
2011,06,26,02,51,8.20
2011,06,26,02,52,8.20
2011,06,26,02,53,8.20
2011,06,26,02,54,8.20
2011,06,26,02,55,8.20
2011,06,26,02,56,8.10
2011,06,26,02,57,8.10
2011,06,26,02,58,8.10
2011,06,26,02,59,8.10
2011,06,26,03,00,8.10
2011,06,26,03,01,8.10
2011,06,26,03,02,8.10
2011,06,26,03,03,8.10
2011,06,26,03,04,8.10
2011,06,26,03,05,8.10
2011,06,26,03,06,8.10
2011,06,26,03,07,8.10
2011,06,26,03,08,8.10
2011,06,26,03,09,8.10
2011,06,26,03,10,8.10
2011,06,26,03,11,8.10
2011,06,26,03,12,8.10
2011,06,26,03,13,8.10
2011,06,26,03,14,8.10
2011,06,26,03,15,8.10
2011,06,26,03,16,8.00
2011,06,26,03,17,8.00
2011,06,26,03,18,8.00
2011,06,26,03,19,7.90
2011,06,26,03,20,7.90
2011,06,26,03,21,7.90
2011,06,26,03,22,7.90
2011,06,26,03,23,7.90
2011,06,26,03,24,7.90
2011,06,26,03,25,7.90
2011,06,26,03,26,7.90
2011,06,26,03,27,7.90
2011,06,26,03,28,7.90
2011,06,26,03,29,7.80
2011,06,26,03,30,7.80
2011,06,26,03,31,7.80
2011,06,26,03,32,7.80
2011,06,26,03,33,7.80
2011,06,26,03,34,7.80
2011,06,26,03,35,7.80
2011,06,26,03,36,7.70
2011,06,26,03,37,7.70
2011,06,26,03,38,7.70
2011,06,26,03,39,7.70
2011,06,26,03,40,7.70
2011,06,26,03,41,7.70
2011,06,26,03,42,7.70
2011,06,26,03,43,7.70
2011,06,26,03,44,7.70
2011,06,26,03,45,7.70
2011,06,26,03,46,7.70
2011,06,26,03,47,7.70
2011,06,26,03,48,7.70
2011,06,26,03,49,7.70
2011,06,26,03,50,7.60
2011,06,26,03,51,7.60
2011,06,26,03,52,7.60
2011,06,26,03,53,7.60
2011,06,26,03,54,7.60
2011,06,26,03,55,7.60
2011,06,26,03,56,7.60
2011,06,26,03,57,7.50
2011,06,26,03,58,7.50
2011,06,26,03,59,7.50
2011,06,26,04,00,7.50
2011,06,26,04,01,7.50
2011,06,26,04,02,7.50
2011,06,26,04,03,7.40
2011,06,26,04,04,7.40
2011,06,26,04,05,7.40
2011,06,26,04,06,7.40
2011,06,26,04,07,7.40
2011,06,26,04,08,7.40
2011,06,26,04,09,7.40
2011,06,26,04,10,7.40
2011,06,26,04,11,7.40
2011,06,26,04,12,7.40
2011,06,26,04,13,7.40
2011,06,26,04,14,7.40
2011,06,26,04,15,7.40
2011,06,26,04,16,7.30
2011,06,26,04,17,7.30
2011,06,26,04,18,7.30
2011,06,26,04,19,7.30
2011,06,26,04,20,7.30
2011,06,26,04,21,7.30
2011,06,26,04,22,7.30
2011,06,26,04,23,7.30
2011,06,26,04,24,7.30
2011,06,26,04,25,7.30
2011,06,26,04,26,7.30
2011,06,26,04,27,7.30
2011,06,26,04,28,7.30
2011,06,26,04,29,7.30
2011,06,26,04,30,7.30
2011,06,26,04,31,7.30
2011,06,26,04,32,7.30
2011,06,26,04,33,7.30
2011,06,26,04,34,7.30
2011,06,26,04,35,7.30
2011,06,26,04,36,7.30
2011,06,26,04,37,7.20
2011,06,26,04,38,7.20
2011,06,26,04,39,7.20
2011,06,26,04,40,7.20
2011,06,26,04,41,7.20
2011,06,26,04,42,7.20
2011,06,26,04,43,7.20
2011,06,26,04,44,7.20
2011,06,26,04,45,7.20
2011,06,26,04,46,7.20
2011,06,26,04,47,7.10
2011,06,26,04,48,7.10
2011,06,26,04,49,7.10
2011,06,26,04,50,7.10
2011,06,26,04,51,7.10
2011,06,26,04,52,7.10
2011,06,26,04,53,7.10
2011,06,26,04,54,7.10
2011,06,26,04,55,7.10
2011,06,26,04,56,7.10
2011,06,26,04,57,7.00
2011,06,26,04,58,7.00
2011,06,26,04,59,7.00
2011,06,26,05,00,6.90
2011,06,26,05,01,6.90
2011,06,26,05,02,6.90
2011,06,26,05,03,6.90
2011,06,26,05,04,6.90
2011,06,26,05,05,6.90
2011,06,26,05,06,6.90
2011,06,26,05,07,6.90
2011,06,26,05,08,6.90
2011,06,26,05,09,6.90
2011,06,26,05,10,6.90
2011,06,26,05,11,6.90
2011,06,26,05,12,6.90
2011,06,26,05,13,6.90
2011,06,26,05,14,6.90
2011,06,26,05,15,6.90
2011,06,26,05,16,6.80
2011,06,26,05,17,6.80
2011,06,26,05,18,6.80
2011,06,26,05,19,6.80
2011,06,26,05,20,6.80
2011,06,26,05,21,6.80
2011,06,26,05,22,6.80
2011,06,26,05,23,6.80
2011,06,26,05,24,6.80
2011,06,26,05,25,6.80
2011,06,26,05,26,6.80
2011,06,26,05,27,6.80
2011,06,26,05,28,6.80
2011,06,26,05,29,6.80
2011,06,26,05,30,6.80
2011,06,26,05,31,6.80
2011,06,26,05,32,6.80
2011,06,26,05,33,6.70
2011,06,26,05,34,6.70
2011,06,26,05,35,6.70
2011,06,26,05,36,6.70
2011,06,26,05,37,6.80
2011,06,26,05,38,6.80
2011,06,26,05,39,6.80
2011,06,26,05,40,6.80
2011,06,26,05,41,6.80
2011,06,26,05,42,6.80
2011,06,26,05,43,6.80
2011,06,26,05,44,6.80
2011,06,26,05,45,6.80
2011,06,26,05,46,6.80
2011,06,26,05,47,6.80
2011,06,26,05,48,6.80
2011,06,26,05,49,6.80
2011,06,26,05,50,6.90
2011,06,26,05,51,6.90
2011,06,26,05,52,6.90
2011,06,26,05,53,6.90
2011,06,26,05,54,6.90
2011,06,26,05,55,6.90
2011,06,26,05,56,6.90
2011,06,26,05,57,6.90
2011,06,26,05,58,6.90
2011,06,26,05,59,6.90
2011,06,26,06,00,6.90
2011,06,26,06,01,6.90
2011,06,26,06,02,6.90
2011,06,26,06,03,7.00
2011,06,26,06,04,7.00
2011,06,26,06,05,7.00
2011,06,26,06,06,7.00
2011,06,26,06,07,7.10
2011,06,26,06,08,7.10
2011,06,26,06,09,7.10
2011,06,26,06,10,7.10
2011,06,26,06,11,7.20
2011,06,26,06,12,7.20
2011,06,26,06,13,7.30
2011,06,26,06,14,7.30
2011,06,26,06,15,7.40
2011,06,26,06,16,7.40
2011,06,26,06,17,7.50
2011,06,26,06,18,7.60
2011,06,26,06,19,7.60
2011,06,26,06,20,7.70
2011,06,26,06,21,7.80
2011,06,26,06,22,7.80
2011,06,26,06,23,7.90
2011,06,26,06,24,7.90
2011,06,26,06,25,8.00
2011,06,26,06,26,8.10
2011,06,26,06,27,8.20
2011,06,26,06,28,8.20
2011,06,26,06,29,8.30
2011,06,26,06,30,8.30
2011,06,26,06,31,8.40
2011,06,26,06,32,8.40
2011,06,26,06,33,8.50
2011,06,26,06,34,8.60
2011,06,26,06,35,8.60
2011,06,26,06,36,8.70
2011,06,26,06,37,8.70
2011,06,26,06,38,8.70
2011,06,26,06,39,8.70
2011,06,26,06,40,8.80
2011,06,26,06,41,8.80
2011,06,26,06,42,8.80
2011,06,26,06,43,8.80
2011,06,26,06,44,8.80
2011,06,26,06,45,8.90
2011,06,26,06,46,8.90
2011,06,26,06,47,8.90
2011,06,26,06,48,8.90
2011,06,26,06,49,9.00
2011,06,26,06,50,9.00
2011,06,26,06,51,9.10
2011,06,26,06,52,9.10
2011,06,26,06,53,9.10
2011,06,26,06,54,9.20
2011,06,26,06,55,9.20
2011,06,26,06,56,9.30
2011,06,26,06,57,9.30
2011,06,26,06,58,9.40
2011,06,26,06,59,9.40
2011,06,26,07,00,9.50
2011,06,26,07,01,9.60
2011,06,26,07,02,9.60
2011,06,26,07,03,9.70
2011,06,26,07,04,9.70
2011,06,26,07,05,9.80
2011,06,26,07,06,9.80
2011,06,26,07,07,9.90
2011,06,26,07,08,10.00
2011,06,26,07,09,10.00
2011,06,26,07,10,10.10
2011,06,26,07,11,10.20
2011,06,26,07,12,10.20
2011,06,26,07,13,10.30
2011,06,26,07,14,10.40
2011,06,26,07,15,10.40
2011,06,26,07,16,10.50
2011,06,26,07,17,10.50
2011,06,26,07,18,10.60
2011,06,26,07,19,10.70
2011,06,26,07,20,10.70
2011,06,26,07,21,10.80
2011,06,26,07,22,10.80
2011,06,26,07,23,10.90
2011,06,26,07,24,10.90
2011,06,26,07,25,11.00
2011,06,26,07,26,11.00
2011,06,26,07,27,11.10
2011,06,26,07,28,11.10
2011,06,26,07,29,11.20
2011,06,26,07,30,11.30
2011,06,26,07,31,11.30
2011,06,26,07,32,11.40
2011,06,26,07,33,11.50
2011,06,26,07,34,11.60
2011,06,26,07,35,11.70
2011,06,26,07,36,11.70
2011,06,26,07,37,11.80
2011,06,26,07,38,11.80
2011,06,26,07,39,11.90
2011,06,26,07,40,11.90
2011,06,26,07,41,12.00
2011,06,26,07,42,12.00
2011,06,26,07,43,12.10
2011,06,26,07,44,12.10
2011,06,26,07,45,12.10
2011,06,26,07,46,12.10
2011,06,26,07,47,12.20
2011,06,26,07,48,12.30
2011,06,26,07,49,12.40
2011,06,26,07,50,12.50
2011,06,26,07,51,12.60
2011,06,26,07,52,12.70
2011,06,26,07,53,12.80
2011,06,26,07,54,12.90
2011,06,26,07,55,13.00
2011,06,26,07,56,13.10
2011,06,26,07,57,13.10
2011,06,26,07,58,13.10
2011,06,26,07,59,13.10
2011,06,26,08,00,13.10
2011,06,26,08,01,13.10
2011,06,26,08,02,13.10
2011,06,26,08,03,13.10
2011,06,26,08,04,13.10
2011,06,26,08,05,13.10
2011,06,26,08,06,13.10
2011,06,26,08,07,13.10
2011,06,26,08,08,13.10
2011,06,26,08,09,13.10
2011,06,26,08,10,13.10
2011,06,26,08,11,13.20
2011,06,26,08,12,13.20
2011,06,26,08,13,13.30
2011,06,26,08,14,13.40
2011,06,26,08,15,13.40
2011,06,26,08,16,13.50
2011,06,26,08,17,13.50
2011,06,26,08,18,13.60
2011,06,26,08,19,13.60
2011,06,26,08,20,13.60
2011,06,26,08,21,13.70
2011,06,26,08,22,13.70
2011,06,26,08,23,13.80
2011,06,26,08,24,13.80
2011,06,26,08,25,13.80
2011,06,26,08,26,13.80
2011,06,26,08,27,13.90
2011,06,26,08,28,13.90
2011,06,26,08,29,14.00
2011,06,26,08,30,14.00
2011,06,26,08,31,14.00
2011,06,26,08,32,14.00
2011,06,26,08,33,14.00
2011,06,26,08,34,13.90
2011,06,26,08,35,13.90
2011,06,26,08,36,13.80
2011,06,26,08,37,13.80
2011,06,26,08,38,13.80
2011,06,26,08,39,13.80
2011,06,26,08,40,13.80
2011,06,26,08,41,13.80
2011,06,26,08,42,13.80
2011,06,26,08,43,13.80
2011,06,26,08,44,13.90
2011,06,26,08,45,13.90
2011,06,26,08,46,13.90
2011,06,26,08,47,13.90
2011,06,26,08,48,14.00
2011,06,26,08,49,14.00
2011,06,26,08,50,14.10
2011,06,26,08,51,14.10
2011,06,26,08,52,14.10
2011,06,26,08,53,14.20
2011,06,26,08,54,14.20
2011,06,26,08,55,14.20
2011,06,26,08,56,14.30
2011,06,26,08,57,14.40
2011,06,26,08,58,14.50
2011,06,26,08,59,14.60
2011,06,26,09,00,14.60
2011,06,26,09,01,14.70
2011,06,26,09,02,14.70
2011,06,26,09,03,14.70
2011,06,26,09,04,14.80
2011,06,26,09,05,14.80
2011,06,26,09,06,14.80
2011,06,26,09,07,14.80
2011,06,26,09,08,14.90
2011,06,26,09,09,14.90
2011,06,26,09,10,15.00
2011,06,26,09,11,15.00
2011,06,26,09,12,15.10
2011,06,26,09,13,15.20
2011,06,26,09,14,15.10
2011,06,26,09,15,15.10
2011,06,26,09,16,15.10
2011,06,26,09,17,15.00
2011,06,26,09,18,14.90
2011,06,26,09,19,14.90
2011,06,26,09,20,15.00
2011,06,26,09,21,15.00
2011,06,26,09,22,15.10
2011,06,26,09,23,15.10
2011,06,26,09,24,15.20
2011,06,26,09,25,15.20
2011,06,26,09,26,15.30
2011,06,26,09,27,15.30
2011,06,26,09,28,15.30
2011,06,26,09,29,15.30
2011,06,26,09,30,15.30
2011,06,26,09,31,15.30
2011,06,26,09,32,15.30
2011,06,26,09,33,15.30
2011,06,26,09,34,15.30
2011,06,26,09,35,15.30
2011,06,26,09,36,15.30
2011,06,26,09,37,15.20
2011,06,26,09,38,15.20
2011,06,26,09,39,15.20
2011,06,26,09,40,15.30
2011,06,26,09,41,15.30
2011,06,26,09,42,15.40
2011,06,26,09,43,15.50
2011,06,26,09,44,15.60
2011,06,26,09,45,15.70
2011,06,26,09,46,15.70
2011,06,26,09,47,15.80
2011,06,26,09,48,15.80
2011,06,26,09,49,15.90
2011,06,26,09,50,15.90
2011,06,26,09,51,16.00
2011,06,26,09,52,16.10
2011,06,26,09,53,16.20
2011,06,26,09,54,16.20
2011,06,26,09,55,16.30
2011,06,26,09,56,16.30
2011,06,26,09,57,16.40
2011,06,26,09,58,16.50
2011,06,26,09,59,16.50
2011,06,26,10,00,16.50
2011,06,26,10,01,16.50
2011,06,26,10,02,16.40
2011,06,26,10,03,16.30
2011,06,26,10,04,16.30
2011,06,26,10,05,16.30
2011,06,26,10,06,16.40
2011,06,26,10,07,16.50
2011,06,26,10,08,16.50
2011,06,26,10,09,16.50
2011,06,26,10,10,16.50
2011,06,26,10,11,16.50
2011,06,26,10,12,16.50
2011,06,26,10,13,16.50
2011,06,26,10,14,16.50
2011,06,26,10,15,16.50
2011,06,26,10,16,16.50
2011,06,26,10,17,16.60
2011,06,26,10,18,16.60
2011,06,26,10,19,16.50
2011,06,26,10,20,16.50
2011,06,26,10,21,16.50
2011,06,26,10,22,16.60
2011,06,26,10,23,16.70
2011,06,26,10,24,16.80
2011,06,26,10,25,16.90
2011,06,26,10,26,17.00
2011,06,26,10,27,17.10
2011,06,26,10,28,17.10
2011,06,26,10,29,17.10
2011,06,26,10,30,17.00
2011,06,26,10,31,16.90
2011,06,26,10,32,16.90
2011,06,26,10,33,16.90
2011,06,26,10,34,16.90
2011,06,26,10,35,16.90
2011,06,26,10,36,17.00
2011,06,26,10,37,17.00
2011,06,26,10,38,17.10
2011,06,26,10,39,17.20
2011,06,26,10,40,17.20
2011,06,26,10,41,17.20
2011,06,26,10,42,17.20
2011,06,26,10,43,17.20
2011,06,26,10,44,17.20
2011,06,26,10,45,17.30
2011,06,26,10,46,17.40
2011,06,26,10,47,17.40
2011,06,26,10,48,17.40
2011,06,26,10,49,17.40
2011,06,26,10,50,17.40
2011,06,26,10,51,17.40
2011,06,26,10,52,17.40
2011,06,26,10,53,17.40
2011,06,26,10,54,17.40
2011,06,26,10,55,17.40
2011,06,26,10,56,17.40
2011,06,26,10,57,17.40
2011,06,26,10,58,17.30
2011,06,26,10,59,17.30
2011,06,26,11,00,17.20
2011,06,26,11,01,17.20
2011,06,26,11,02,17.10
2011,06,26,11,03,17.10
2011,06,26,11,04,17.10
2011,06,26,11,05,17.20
2011,06,26,11,06,17.20
2011,06,26,11,07,17.30
2011,06,26,11,08,17.30
2011,06,26,11,09,17.50
2011,06,26,11,10,17.60
2011,06,26,11,11,17.60
2011,06,26,11,12,17.60
2011,06,26,11,13,17.70
2011,06,26,11,14,17.70
2011,06,26,11,15,17.70
2011,06,26,11,16,17.70
2011,06,26,11,17,17.70
2011,06,26,11,18,17.50
2011,06,26,11,19,17.30
2011,06,26,11,20,17.10
2011,06,26,11,21,17.00
2011,06,26,11,22,16.90
2011,06,26,11,23,16.80
2011,06,26,11,24,16.70
2011,06,26,11,25,16.60
2011,06,26,11,26,16.50
2011,06,26,11,27,16.40
2011,06,26,11,28,16.40
2011,06,26,11,29,16.40
2011,06,26,11,30,16.40
2011,06,26,11,31,16.40
2011,06,26,11,32,16.40
2011,06,26,11,33,16.40
2011,06,26,11,34,16.50
2011,06,26,11,35,16.60
2011,06,26,11,36,16.60
2011,06,26,11,37,16.70
2011,06,26,11,38,16.80
2011,06,26,11,39,16.80
2011,06,26,11,40,16.90
2011,06,26,11,41,16.90
2011,06,26,11,42,16.90
2011,06,26,11,43,16.90
2011,06,26,11,44,16.90
2011,06,26,11,45,16.80
2011,06,26,11,46,16.80
2011,06,26,11,47,16.80
2011,06,26,11,48,16.80
2011,06,26,11,49,16.80
2011,06,26,11,50,16.80
2011,06,26,11,51,16.80
2011,06,26,11,52,16.90
2011,06,26,11,53,16.90
2011,06,26,11,54,17.00
2011,06,26,11,55,17.10
2011,06,26,11,56,17.10
2011,06,26,11,57,17.10
2011,06,26,11,58,17.20
2011,06,26,11,59,17.30
2011,06,26,12,00,17.40
2011,06,26,12,01,17.40
2011,06,26,12,02,17.40
2011,06,26,12,03,17.40
2011,06,26,12,04,17.40
2011,06,26,12,05,17.40
2011,06,26,12,06,17.40
2011,06,26,12,07,17.50
2011,06,26,12,08,17.60
2011,06,26,12,09,17.70
2011,06,26,12,10,17.80
2011,06,26,12,11,17.80
2011,06,26,12,12,17.80
2011,06,26,12,13,17.80
2011,06,26,12,14,17.70
2011,06,26,12,15,17.50
2011,06,26,12,16,17.50
2011,06,26,12,17,17.40
2011,06,26,12,18,17.40
2011,06,26,12,19,17.40
2011,06,26,12,20,17.40
2011,06,26,12,21,17.30
2011,06,26,12,22,17.20
2011,06,26,12,23,17.00
2011,06,26,12,24,16.90
2011,06,26,12,25,16.90
2011,06,26,12,26,16.80
2011,06,26,12,27,16.70
2011,06,26,12,28,16.70
2011,06,26,12,29,16.60
2011,06,26,12,30,16.60
2011,06,26,12,31,16.50
2011,06,26,12,32,16.50
2011,06,26,12,33,16.50
2011,06,26,12,34,16.50
2011,06,26,12,35,16.50
2011,06,26,12,36,16.50
2011,06,26,12,37,16.60
2011,06,26,12,38,16.60
2011,06,26,12,39,16.60
2011,06,26,12,40,16.70
2011,06,26,12,41,16.70
2011,06,26,12,42,16.80
2011,06,26,12,43,16.80
2011,06,26,12,44,16.80
2011,06,26,12,45,16.80
2011,06,26,12,46,16.90
2011,06,26,12,47,17.00
2011,06,26,12,48,17.10
2011,06,26,12,49,17.20
2011,06,26,12,50,17.20
2011,06,26,12,51,17.30
2011,06,26,12,52,17.30
2011,06,26,12,53,17.30
2011,06,26,12,54,17.20
2011,06,26,12,55,17.10
2011,06,26,12,56,17.10
2011,06,26,12,57,17.20
2011,06,26,12,58,17.20
2011,06,26,12,59,17.20
2011,06,26,13,00,17.10
2011,06,26,13,01,17.10
2011,06,26,13,02,17.10
2011,06,26,13,03,17.10
2011,06,26,13,04,17.20
2011,06,26,13,05,17.30
2011,06,26,13,06,17.30
2011,06,26,13,07,17.30
2011,06,26,13,08,17.30
2011,06,26,13,09,17.40
2011,06,26,13,10,17.40
2011,06,26,13,11,17.50
2011,06,26,13,12,17.50
2011,06,26,13,13,17.50
2011,06,26,13,14,17.50
2011,06,26,13,15,17.50
2011,06,26,13,16,17.50
2011,06,26,13,17,17.50
2011,06,26,13,18,17.60
2011,06,26,13,19,17.60
2011,06,26,13,20,17.60
2011,06,26,13,21,17.60
2011,06,26,13,22,17.50
2011,06,26,13,23,17.50
2011,06,26,13,24,17.50
2011,06,26,13,25,17.40
2011,06,26,13,26,17.30
2011,06,26,13,27,17.20
2011,06,26,13,28,17.10
2011,06,26,13,29,17.10
2011,06,26,13,30,17.20
2011,06,26,13,31,17.20
2011,06,26,13,32,17.30
2011,06,26,13,33,17.40
2011,06,26,13,34,17.40
2011,06,26,13,35,17.40
2011,06,26,13,36,17.40
2011,06,26,13,37,17.40
2011,06,26,13,38,17.30
2011,06,26,13,39,17.30
2011,06,26,13,40,17.30
2011,06,26,13,41,17.40
2011,06,26,13,42,17.40
2011,06,26,13,43,17.40
2011,06,26,13,44,17.40
2011,06,26,13,45,17.40
2011,06,26,13,46,17.40
2011,06,26,13,47,17.30
2011,06,26,13,48,17.20
2011,06,26,13,49,17.10
2011,06,26,13,50,17.10
2011,06,26,13,51,17.00
2011,06,26,13,52,16.90
2011,06,26,13,53,16.90
2011,06,26,13,54,17.00
2011,06,26,13,55,17.00
2011,06,26,13,56,17.00
2011,06,26,13,57,17.00
2011,06,26,13,58,17.00
2011,06,26,13,59,17.00
2011,06,26,14,00,17.00
2011,06,26,14,01,16.90
2011,06,26,14,02,16.80
2011,06,26,14,03,16.80
2011,06,26,14,04,16.70
2011,06,26,14,05,16.70
2011,06,26,14,06,16.70
2011,06,26,14,07,16.70
2011,06,26,14,08,16.70
2011,06,26,14,09,16.70
2011,06,26,14,10,16.80
2011,06,26,14,11,16.80
2011,06,26,14,12,16.90
2011,06,26,14,13,17.00
2011,06,26,14,14,17.10
2011,06,26,14,15,17.20
2011,06,26,14,16,17.30
2011,06,26,14,17,17.30
2011,06,26,14,18,17.40
2011,06,26,14,19,17.40
2011,06,26,14,20,17.30
2011,06,26,14,21,17.30
2011,06,26,14,22,17.40
2011,06,26,14,23,17.50
2011,06,26,14,24,17.50
2011,06,26,14,25,17.60
2011,06,26,14,26,17.70
2011,06,26,14,27,17.70
2011,06,26,14,28,17.70
2011,06,26,14,29,17.80
2011,06,26,14,30,17.80
2011,06,26,14,31,17.90
2011,06,26,14,32,17.90
2011,06,26,14,33,17.90
2011,06,26,14,34,17.90
2011,06,26,14,35,17.80
2011,06,26,14,36,17.80
2011,06,26,14,37,17.90
2011,06,26,14,38,17.90
2011,06,26,14,39,17.80
2011,06,26,14,40,17.80
2011,06,26,14,41,17.80
2011,06,26,14,42,17.80
2011,06,26,14,43,17.90
2011,06,26,14,44,18.00
2011,06,26,14,45,18.00
2011,06,26,14,46,18.10
2011,06,26,14,47,18.20
2011,06,26,14,48,18.20
2011,06,26,14,49,18.30
2011,06,26,14,50,18.20
2011,06,26,14,51,18.20
2011,06,26,14,52,18.30
2011,06,26,14,53,18.30
2011,06,26,14,54,18.30
2011,06,26,14,55,18.20
2011,06,26,14,56,18.20
2011,06,26,14,57,18.10
2011,06,26,14,58,18.10
2011,06,26,14,59,18.00
2011,06,26,15,00,18.00
2011,06,26,15,01,18.10
2011,06,26,15,02,18.10
2011,06,26,15,03,18.10
2011,06,26,15,04,18.10
2011,06,26,15,05,18.10
2011,06,26,15,06,18.10
2011,06,26,15,07,18.10
2011,06,26,15,08,18.00
2011,06,26,15,09,18.00
2011,06,26,15,10,18.10
2011,06,26,15,11,18.10
2011,06,26,15,12,18.20
2011,06,26,15,13,18.30
2011,06,26,15,14,18.20
2011,06,26,15,15,18.20
2011,06,26,15,16,18.10
2011,06,26,15,17,18.10
2011,06,26,15,18,18.10
2011,06,26,15,19,18.10
2011,06,26,15,20,18.20
2011,06,26,15,21,18.30
2011,06,26,15,22,18.40
2011,06,26,15,23,18.40
2011,06,26,15,24,18.40
2011,06,26,15,25,18.30
2011,06,26,15,26,18.40
2011,06,26,15,27,18.40
2011,06,26,15,28,18.40
2011,06,26,15,29,18.40
2011,06,26,15,30,18.30
2011,06,26,15,31,18.30
2011,06,26,15,32,18.30
2011,06,26,15,33,18.40
2011,06,26,15,34,18.40
2011,06,26,15,35,18.30
2011,06,26,15,36,18.30
2011,06,26,15,37,18.30
2011,06,26,15,38,18.30
2011,06,26,15,39,18.30
2011,06,26,15,40,18.30
2011,06,26,15,41,18.30
2011,06,26,15,42,18.20
2011,06,26,15,43,18.10
2011,06,26,15,44,18.00
2011,06,26,15,45,18.00
2011,06,26,15,46,17.90
2011,06,26,15,47,17.90
2011,06,26,15,48,17.90
2011,06,26,15,49,17.90
2011,06,26,15,50,18.00
2011,06,26,15,51,18.00
2011,06,26,15,52,18.00
2011,06,26,15,53,18.10
2011,06,26,15,54,18.10
2011,06,26,15,55,18.20
2011,06,26,15,56,18.20
2011,06,26,15,57,18.30
2011,06,26,15,58,18.30
2011,06,26,15,59,18.30
2011,06,26,16,00,18.30
2011,06,26,16,01,18.30
2011,06,26,16,02,18.30
2011,06,26,16,03,18.30
2011,06,26,16,04,18.30
2011,06,26,16,05,18.20
2011,06,26,16,06,18.20
2011,06,26,16,07,18.30
2011,06,26,16,08,18.20
2011,06,26,16,09,18.20
2011,06,26,16,10,18.10
2011,06,26,16,11,18.10
2011,06,26,16,12,18.10
2011,06,26,16,13,18.10
2011,06,26,16,14,18.10
2011,06,26,16,15,18.00
2011,06,26,16,16,18.00
2011,06,26,16,17,18.00
2011,06,26,16,18,17.90
2011,06,26,16,19,17.90
2011,06,26,16,20,17.90
2011,06,26,16,21,17.80
2011,06,26,16,22,17.80
2011,06,26,16,23,17.80
2011,06,26,16,24,17.80
2011,06,26,16,25,17.80
2011,06,26,16,26,17.70
2011,06,26,16,27,17.70
2011,06,26,16,28,17.70
2011,06,26,16,29,17.70
2011,06,26,16,30,17.70
2011,06,26,16,31,17.70
2011,06,26,16,32,17.70
2011,06,26,16,33,17.70
2011,06,26,16,34,17.70
2011,06,26,16,35,17.70
2011,06,26,16,36,17.70
2011,06,26,16,37,17.70
2011,06,26,16,38,17.60
2011,06,26,16,39,17.70
2011,06,26,16,40,17.70
2011,06,26,16,41,17.70
2011,06,26,16,42,17.70
2011,06,26,16,43,17.70
2011,06,26,16,44,17.70
2011,06,26,16,45,17.80
2011,06,26,16,46,17.80
2011,06,26,16,47,17.90
2011,06,26,16,48,18.00
2011,06,26,16,49,18.10
2011,06,26,16,50,18.20
2011,06,26,16,51,18.30
2011,06,26,16,52,18.30
2011,06,26,16,53,18.30
2011,06,26,16,54,18.30
2011,06,26,16,55,18.40
2011,06,26,16,56,18.40
2011,06,26,16,57,18.40
2011,06,26,16,58,18.40
2011,06,26,16,59,18.40
2011,06,26,17,00,18.40
2011,06,26,17,01,18.40
2011,06,26,17,02,18.50
2011,06,26,17,03,18.50
2011,06,26,17,04,18.50
2011,06,26,17,05,18.50
2011,06,26,17,06,18.50
2011,06,26,17,07,18.50
2011,06,26,17,08,18.50
2011,06,26,17,09,18.40
2011,06,26,17,10,18.40
2011,06,26,17,11,18.40
2011,06,26,17,12,18.40
2011,06,26,17,13,18.40
2011,06,26,17,14,18.40
2011,06,26,17,15,18.40
2011,06,26,17,16,18.40
2011,06,26,17,17,18.50
2011,06,26,17,18,18.50
2011,06,26,17,19,18.60
2011,06,26,17,20,18.60
2011,06,26,17,21,18.60
2011,06,26,17,22,18.60
2011,06,26,17,23,18.60
2011,06,26,17,24,18.60
2011,06,26,17,25,18.70
2011,06,26,17,26,18.70
2011,06,26,17,27,18.60
2011,06,26,17,28,18.60
2011,06,26,17,29,18.70
2011,06,26,17,30,18.70
2011,06,26,17,31,18.70
2011,06,26,17,32,18.70
2011,06,26,17,33,18.70
2011,06,26,17,34,18.70
2011,06,26,17,35,18.70
2011,06,26,17,36,18.70
2011,06,26,17,37,18.70